MON6846 EGKK-LOWI

Flight info

Callsign MON6846
Flight time N/A
Altitude 37000
Route DVR L9 KONAN DCT KOK UL607 FERDI DCT REMBA DCT LIRSU DCT KRH DCT TEDGO/N0442F350 DCT BATUB/N0435F310 M738 MADEB MADEB1B
Aircraft A320/M-SDE3FGHIRWY/LB1

Departure

Time N/A
Airport London Gatwick Airport (EGKK)

Arrival

Time 2026-05-04 19:24
Airport Innsbruck Airport (LOWI)
Time Latitude Longitude Altitude Speed Heading
2026-05-04 18:43 49.74022 6.48520 34950 ft 442 kts 124°
2026-05-04 18:43 49.71141 6.56927 34929 ft 443 kts 124°
2026-05-04 18:44 49.68257 6.65333 34958 ft 443 kts 124°
2026-05-04 18:44 49.65382 6.73689 34942 ft 444 kts 124°
2026-05-04 18:45 49.62478 6.82096 34952 ft 444 kts 124°
2026-05-04 18:45 49.59561 6.90511 34956 ft 445 kts 124°
2026-05-04 18:46 49.56634 6.98921 34964 ft 446 kts 124°
2026-05-04 18:46 49.53698 7.07334 34964 ft 446 kts 124°
2026-05-04 18:47 49.50752 7.15752 34985 ft 447 kts 124°
2026-05-04 18:47 49.47796 7.24166 34992 ft 447 kts 124°
2026-05-04 18:48 49.44832 7.32581 34997 ft 448 kts 124°
2026-05-04 18:48 49.41858 7.40992 34982 ft 448 kts 124°
2026-05-04 18:49 49.38879 7.49395 34984 ft 448 kts 124°
2026-05-04 18:49 49.35909 7.57741 34976 ft 448 kts 124°
2026-05-04 18:50 49.32916 7.66123 34979 ft 448 kts 124°
2026-05-04 18:50 49.29919 7.74491 34981 ft 448 kts 124°
2026-05-04 18:51 49.26913 7.82857 34984 ft 448 kts 124°
2026-05-04 18:51 49.23903 7.91205 34986 ft 448 kts 124°
2026-05-04 18:52 49.20884 7.99551 34989 ft 448 kts 124°
2026-05-04 18:52 49.17862 8.07878 34967 ft 448 kts 124°
2026-05-04 18:53 49.14830 8.16206 34942 ft 449 kts 124°
2026-05-04 18:53 49.11791 8.24529 34939 ft 448 kts 124°
2026-05-04 18:54 49.08749 8.32831 34968 ft 447 kts 124°
2026-05-04 18:54 49.05700 8.41105 34962 ft 447 kts 124°
2026-05-04 18:55 49.02644 8.49368 34959 ft 447 kts 124°
2026-05-04 18:55 48.97738 8.61362 34946 ft 441 kts 133°
2026-05-04 18:56 48.93798 8.68518 34936 ft 440 kts 135°
2026-05-04 18:56 48.89822 8.75597 34940 ft 441 kts 134°
2026-05-04 18:57 48.85898 8.82759 34942 ft 441 kts 134°
2026-05-04 18:57 48.81963 8.89887 34972 ft 440 kts 134°
2026-05-04 18:58 48.78033 8.96939 34952 ft 441 kts 134°
2026-05-04 18:58 48.74083 9.04037 34938 ft 441 kts 134°
2026-05-04 18:59 48.70122 9.11138 34943 ft 441 kts 134°
2026-05-04 18:59 48.66154 9.18223 34922 ft 442 kts 134°
2026-05-04 19:00 48.61960 9.24939 34953 ft 435 kts 145°
2026-05-04 19:00 48.59428 9.27369 34943 ft 430 kts 158°
2026-05-04 19:00 48.56672 9.29065 34943 ft 427 kts 163°
2026-05-04 19:01 48.51040 9.31964 34922 ft 428 kts 164°
2026-05-04 19:01 48.45439 9.35007 34963 ft 428 kts 162°
2026-05-04 19:02 48.39867 9.38207 34957 ft 429 kts 162°
2026-05-04 19:02 48.34249 9.41189 34986 ft 427 kts 164°
2026-05-04 19:03 48.28583 9.43838 34991 ft 427 kts 165°
2026-05-04 19:03 48.22947 9.46466 34951 ft 427 kts 165°
2026-05-04 19:04 48.17255 9.49173 34909 ft 427 kts 164°
2026-05-04 19:04 48.11637 9.51822 34695 ft 423 kts 164°
2026-05-04 19:05 48.08842 9.53132 34101 ft 421 kts 164°
2026-05-04 19:05 48.06031 9.54446 33156 ft 426 kts 164°
2026-05-04 19:05 48.03183 9.55848 32062 ft 436 kts 160°
2026-05-04 19:05 48.00461 9.57911 31208 ft 441 kts 149°
2026-05-04 19:06 47.97956 9.60502 30775 ft 433 kts 147°
2026-05-04 19:06 47.95564 9.63152 30451 ft 423 kts 146°
2026-05-04 19:06 47.93236 9.65771 30005 ft 416 kts 146°
2026-05-04 19:06 47.90928 9.68320 29491 ft 411 kts 147°
2026-05-04 19:07 47.88625 9.70801 28963 ft 406 kts 147°
2026-05-04 19:07 47.86341 9.73227 28461 ft 401 kts 147°
2026-05-04 19:07 47.84084 9.75629 27964 ft 396 kts 147°
2026-05-04 19:07 47.81854 9.78018 27467 ft 394 kts 147°
2026-05-04 19:08 47.79637 9.80406 26943 ft 393 kts 147°
2026-05-04 19:08 47.77429 9.82781 26430 ft 391 kts 147°
2026-05-04 19:08 47.75226 9.85144 25919 ft 389 kts 147°
2026-05-04 19:08 47.73038 9.87485 25430 ft 387 kts 147°
2026-05-04 19:09 47.70863 9.89808 24946 ft 384 kts 147°
2026-05-04 19:09 47.68695 9.92121 24429 ft 383 kts 147°
2026-05-04 19:09 47.66534 9.94426 23917 ft 382 kts 147°
2026-05-04 19:09 47.64379 9.96724 23434 ft 380 kts 147°
2026-05-04 19:10 47.62234 9.99007 22956 ft 378 kts 147°
2026-05-04 19:10 47.60097 10.01279 22483 ft 376 kts 147°
2026-05-04 19:10 47.57976 10.03531 22027 ft 374 kts 147°
2026-05-04 19:10 47.55865 10.05773 21581 ft 372 kts 147°
2026-05-04 19:11 47.53767 10.07998 21134 ft 370 kts 147°
2026-05-04 19:11 47.51676 10.10211 20693 ft 369 kts 147°
2026-05-04 19:11 47.49596 10.12410 20278 ft 367 kts 147°
2026-05-04 19:11 47.47527 10.14599 19865 ft 364 kts 147°
2026-05-04 19:12 47.45469 10.16774 19441 ft 363 kts 147°
2026-05-04 19:12 47.41281 10.20854 18611 ft 358 kts 151°
2026-05-04 19:12 47.39170 10.22771 18218 ft 356 kts 152°
2026-05-04 19:13 47.37056 10.24676 17828 ft 354 kts 152°
2026-05-04 19:13 47.34967 10.26575 17441 ft 353 kts 150°
2026-05-04 19:13 47.33113 10.28890 17025 ft 358 kts 133°
2026-05-04 19:13 47.31885 10.32074 16652 ft 362 kts 111°
2026-05-04 19:14 47.31303 10.35733 16299 ft 362 kts 103°
2026-05-04 19:14 47.30889 10.39382 15937 ft 360 kts 102°
2026-05-04 19:14 47.30489 10.43014 15573 ft 358 kts 102°
2026-05-04 19:14 47.30050 10.46575 15175 ft 358 kts 104°
2026-05-04 19:15 47.29550 10.50207 14726 ft 357 kts 104°
2026-05-04 19:15 47.29041 10.53728 14296 ft 354 kts 105°
2026-05-04 19:15 47.28619 10.57290 13853 ft 354 kts 96°
2026-05-04 19:15 47.28650 10.60932 13341 ft 355 kts 89°
2026-05-04 19:16 47.28848 10.64554 12852 ft 354 kts 87°
2026-05-04 19:16 47.29094 10.68139 12550 ft 346 kts 87°
2026-05-04 19:16 47.29323 10.71661 12027 ft 344 kts 88°
2026-05-04 19:16 47.29515 10.75143 11486 ft 339 kts 88°
2026-05-04 19:17 47.29680 10.78576 10941 ft 333 kts 88°
2026-05-04 19:17 47.29835 10.81953 10417 ft 327 kts 88°
2026-05-04 19:17 47.29992 10.85262 9888 ft 321 kts 87°
2026-05-04 19:17 47.30152 10.88491 9488 ft 312 kts 87°
2026-05-04 19:18 47.30309 10.91646 9015 ft 305 kts 86°
2026-05-04 19:18 47.30460 10.94723 8550 ft 298 kts 87°
2026-05-04 19:18 47.30606 10.97740 8095 ft 291 kts 86°
2026-05-04 19:18 47.30745 11.00610 7660 ft 270 kts 86°
2026-05-04 19:19 47.30875 11.03291 7247 ft 255 kts 86°
2026-05-04 19:19 47.30994 11.05814 6837 ft 238 kts 88°
2026-05-04 19:19 47.30822 11.08112 6431 ft 221 kts 109°
2026-05-04 19:19 47.30213 11.10116 6091 ft 207 kts 118°
2026-05-04 19:20 47.29536 11.11892 5763 ft 192 kts 118°
2026-05-04 19:20 47.28939 11.13583 5429 ft 180 kts 115°
2026-05-04 19:20 47.28418 11.15200 5141 ft 170 kts 115°
2026-05-04 19:20 47.27926 11.16712 4881 ft 158 kts 116°
2026-05-04 19:21 47.27450 11.18125 4591 ft 150 kts 116°
2026-05-04 19:21 47.26978 11.19465 4292 ft 146 kts 116°
2026-05-04 19:21 47.26494 11.20784 4008 ft 147 kts 116°
2026-05-04 19:21 47.26056 11.22160 3721 ft 151 kts 109°
2026-05-04 19:22 47.25676 11.23609 3466 ft 152 kts 106°
2026-05-04 19:22 47.25380 11.25092 3228 ft 150 kts 99°
2026-05-04 19:22 47.25214 11.26605 3003 ft 149 kts 90°
2026-05-04 19:22 47.25277 11.28104 2779 ft 145 kts 76°
2026-05-04 19:23 47.25463 11.29553 2541 ft 144 kts 76°
2026-05-04 19:23 47.25642 11.31001 2310 ft 144 kts 76°
2026-05-04 19:23 47.25807 11.32455 2081 ft 144 kts 77°
2026-05-04 19:23 47.25962 11.33886 1915 ft 134 kts 78°
2026-05-04 19:24 47.26064 11.34777 1914 ft 43 kts 81°
2026-05-04 19:24 47.26097 11.35089 1914 ft 29 kts 81°
2026-05-04 19:24 47.26080 11.35261 1914 ft 12 kts 172°
2026-05-04 19:24 47.26004 11.35274 1914 ft 7 kts 172°
2026-05-04 19:25 47.25958 11.35283 1914 ft 7 kts 172°
2026-05-04 19:25 47.25912 11.35287 1914 ft 6 kts 199°
2026-05-04 19:25 47.25896 11.35232 1914 ft 6 kts 263°
2026-05-04 19:25 47.25891 11.35168 1914 ft 7 kts 262°
2026-05-04 19:26 47.25882 11.35092 1914 ft 8 kts 261°
2026-05-04 19:26 47.25852 11.35043 1914 ft 7 kts 164°
2026-05-04 19:26 47.25824 11.35051 1914 ft 2 kts 173°
2026-05-04 19:26 47.25819 11.35052 1914 ft 0 kts 171°